Weather History for Elizabeth City, NC

Change the Weather History Date:

Sunday, February 17, 2013

  Actual Average Record
Temperature  
Mean Temperature 31 °F 44 °F  
Max Temperature 38 °F 54 °F 80 °F (1945)
Min Temperature 24 °F 35 °F 11 °F (1958)
Degree Days  
Heating Degree Days 34 21  
Month to date heating degree days 339 368  
Since 1 July heating degree days 1802 2255  
Cooling Degree Days 0 0  
Month to date cooling degree days 0 0  
Year to date cooling degree days 5 1  
Moisture  
Dew Point 19 °F    
Average Humidity 59    
Maximum Humidity 82    
Minimum Humidity 35    
Precipitation  
Precipitation T in 0.12 in 1.58 in (1998)
Month to date precipitation 1.68 1.92  
Year to date precipitation 3.08 5.18  
Snow  
Snow T in - - ()
Month to date snowfall T  
Since 1 July snowfall T  
Snow Depth 0.00 in    
Sea Level Pressure  
Sea Level Pressure 30.00 in    
Wind  
Wind Speed 15 mph (WNW)    
Max Wind Speed 28 mph    
Max Gust Speed 36 mph    
Visibility 10 miles    
Events Snow    
T = Trace of Precipitation, MM = Missing Value Source: NWS Daily Summary

Daily Weather History Graph

Daily Weather History Graph

Search for Another Location

Airport:

Trip Planner

Search our weather history database for the weather conditions in past years. The results will help you decide how hot, cold, wet, or windy it might be!

Date:

Astronomy

Feb. 17, 2013 Rise Set
Actual Time 6:49 AM EST 5:48 PM EST
Civil Twilight 6:23 AM EST 6:14 PM EST
Nautical Twilight 5:53 AM EST 6:44 PM EST
Astronomical Twilight 5:23 AM EST 7:14 PM EST
Moon 10:55 AM EST (2/17) 12:28 AM EST (2/17)
Length of Visible Light 11h 50m
Length of Day
10h 58m
Waxing Crescent, 49% of the Moon is Illuminated
Feb 17
Waxing Crescent
Feb 17
First Quarter
Feb 25
Full
Mar 4
Last Quarter
Mar 11
New

Hourly Weather History & Observations

Time (EST) Temp. Windchill Dew Point Humidity Pressure Visibility Wind Dir Wind Speed Gust Speed Precip Events Conditions
12:08 AM 35.6 °F 25.2 °F 30.2 °F 81% 29.78 in 3.0 mi NW 18.4 mph - 0.00 in Snow Light Snow
12:29 AM 35.6 °F 26.6 °F 30.2 °F 81% 29.80 in 10.0 mi NW 13.8 mph 24.2 mph 0.00 in   Overcast
12:54 AM 36.0 °F 28.0 °F 30.9 °F 82% 29.81 in 10.0 mi WNW 11.5 mph - 0.00 in   Overcast
1:54 AM 35.1 °F 25.9 °F 28.9 °F 78% 29.82 in 10.0 mi WNW 13.8 mph 20.7 mph N/A   Mostly Cloudy
2:54 AM 34.0 °F 24.6 °F 25.0 °F 70% 29.83 in 10.0 mi WNW 13.8 mph 24.2 mph N/A   Clear
3:54 AM 32.0 °F 21.6 °F 24.1 °F 73% 29.86 in 10.0 mi WNW 15.0 mph - N/A   Clear
4:54 AM 30.9 °F 21.2 °F 21.9 °F 69% 29.88 in 10.0 mi WNW 12.7 mph - N/A   Clear
5:54 AM 30.0 °F 20.0 °F 21.0 °F 69% 29.91 in 10.0 mi WNW 12.7 mph - N/A   Clear
6:54 AM 30.0 °F 20.0 °F 21.0 °F 69% 29.93 in 10.0 mi WNW 12.7 mph - N/A   Clear
7:54 AM 32.0 °F 22.1 °F 23.0 °F 69% 29.96 in 10.0 mi West 13.8 mph - N/A   Clear
8:54 AM 33.1 °F 21.2 °F 23.0 °F 66% 29.98 in 10.0 mi West 20.7 mph 25.3 mph N/A   Clear
9:54 AM 35.1 °F 23.0 °F 21.0 °F 57% 30.00 in 10.0 mi WNW 24.2 mph 29.9 mph N/A   Clear
10:54 AM 35.1 °F 23.5 °F 19.9 °F 54% 30.01 in 10.0 mi West 21.9 mph 31.1 mph N/A   Clear
11:54 AM 37.0 °F 26.4 °F 19.9 °F 50% 30.02 in 10.0 mi West 20.7 mph 31.1 mph N/A   Mostly Cloudy
12:54 PM 37.0 °F 25.9 °F 18.0 °F 46% 30.01 in 10.0 mi West 23.0 mph 32.2 mph N/A   Scattered Clouds
1:54 PM 34.0 °F 22.4 °F 14.0 °F 44% 30.03 in 10.0 mi WNW 20.7 mph 27.6 mph N/A   Overcast
2:54 PM 35.1 °F 23.3 °F 14.0 °F 42% 30.04 in 10.0 mi West 23.0 mph 31.1 mph N/A   Mostly Cloudy
3:54 PM 36.0 °F 25.6 °F 10.9 °F 36% 30.06 in 10.0 mi WNW 18.4 mph 27.6 mph N/A   Mostly Cloudy
4:54 PM 35.1 °F 23.5 °F 10.9 °F 37% 30.08 in 10.0 mi WNW 21.9 mph 29.9 mph N/A   Scattered Clouds
5:54 PM 33.1 °F 22.2 °F 10.9 °F 40% 30.12 in 10.0 mi West 17.3 mph 24.2 mph N/A   Clear
7:54 PM 28.9 °F 21.9 °F 10.9 °F 47% 30.17 in 10.0 mi West 6.9 mph - N/A   Clear
8:54 PM 26.1 °F 19.4 °F 12.0 °F 55% 30.20 in 10.0 mi WNW 5.8 mph - N/A   Clear
9:54 PM 28.0 °F 20.8 °F 12.0 °F 51% 30.22 in 10.0 mi West 6.9 mph - N/A   Clear
10:54 PM 27.0 °F 18.7 °F 12.0 °F 53% 30.23 in 10.0 mi West 8.1 mph - N/A   Clear
11:54 PM 25.0 °F 16.3 °F 12.9 °F 60% 30.25 in 10.0 mi West 8.1 mph - N/A   Clear